Location: Demre
(36.2444°N, 29.9850°E)
Time: 04:56:42
(UTC+00:00)

Cosmos 1140 Rocket - Pass Details

Date: 11 March 2026
Orbit: 739 x 762 km, 74.1° (Epoch: 21 April)

Event Time Altitude Azimuth Distance (km) Brightness Sun altitude
Rises 16:33:01 0° 175° (S) 3,189 6.6 -6.7°
Reaches altitude 10° 16:35:30 10° 166° (SSE) 2,272 5.8 -7.2°
Maximum altitude 16:40:12 36° 101° (E) 1,181 4.0 -8.2°
Drops below altitude 10° 16:44:56 10° 35° (NE) 2,296 5.7 -9.1°
Sets 16:47:27 0° 28° (NNE) 3,228 6.5 -9.6°
